Погода в Алейске

Погода в Алейске : погода сейчас, прогноз погоды и архив. Всё, что Вы хотите узнать о погоде в Алейске!

Хотите узнать прогноз погоды в Алейске? Тогда Вам сюда: Погода в Алейске

Поиск расширенной информации на нашем сайте:

Другие новости

Новости СМИ2

Главная страница сайта

Новости сайта

02.10.2013

Напоминаем, что на нашем новом сайте вы можете получить высокодетализированные прогнозы погоды по пунктам России, СНГ и мира (включающие важные для авиации метеовеличины, такие как направление и скорость ветра, видимость, явления погоды, количество и форма облачности, нижняя и верхняя граница облачности), а также ознакомиться с разнообразными материалами по авиационной метеорологии и подборкой полезных ссылок на эту тему.

Сайт Метеоцентр.Азия посвящён разработке технологий оптимизации авиаметеорологического обслуживания, включая проектирование и перспективное создание нескольких автоматизированных авиаметеорологических систем:
- система выпуска высокодетальных прогностических карт явлений погоды для нижнего воздушного пространства по России и ближнему зарубежью;
- система верификации прогнозов TAF (выпускаемых синоптиками официальных АМСГ РФ и ближнего зарубежья) и AUTOTAF (выпускаемых сайтом Метеоцентр.Азия) - выявление ошибок, онлайн-сопоставление с фактической погодой METAR, автоматическое внесение коррективов в прогнозы при резком отклонении фактической погоды от прогноза, подсчёт оправдываемости прогнозов по элементам и в целом;
- система обработки, анализа и отображения авиаметеорологической информации для применения провайдерами метеорологической информации.

Рекомендуем: овощи доставка стоимость

Погода в Алейске - сегодня

Время (UTC), дата Ветер
(°,м/с) 
Видим.   Явления Облачность Т
(°С)
Тd
(°С)
f(%) Тe
(°С)
Pmin
(гПа)
dP
(гПа)
Po
(мм)
O2
(г/м3)
Тmin Tmax R s Состояние
почвы
12 22.03.17 тихо ()   20000 м    ясно 
+3 -7.5 46 +3  1035  0.4  760  304    +4.8       
15 22.03.17 тихо ()   20000 м    ясно 
-4.5 -8.4 74 -5  1036.6  0.9  760  312           
18 22.03.17 020 (С) 20000 м    ясно 
-7 -9.4 83 -7  1037.1  0.3  761  315           
21 22.03.17 020 (С) 20000 м    ясно 
-7.6 -12 71 -9  1037.4  0.2  761  316           
00 23.03.17 тихо ()   20000 м    ясно 
-10.3 -13.9 75 -10  1038.2  0.5  761  320  -10.3      мокрый или
старый снег
50-90% 
03 23.03.17 030 (СВ) 10 км    ясно 
-5 -11.6 60 -6  1038.6  0.9  762  314  -11.2         
06 23.03.17 020 (С) 20000 м    ясно 
-0.1 -9.6 49 -2  1037.8  -0.4  761  308           
09 23.03.17 030 (СВ) 20000 м    ясно 
+3.4 -7.2 46 +4  1036.5  -1  761  304           
12 23.03.17 010 (С) 20000 м    ясно 
+3.4 -8.4 42 +3  1036.1  -0.4  760  303    +4.8       
15 23.03.17 010 (С) 20000 м    ясно 
-1.3 -9.1 55 -2  1036.4  760  309           
18 23.03.17 020 (С) 20000 м    ясно 
-4.6 -10.8 62 -6  1035.8  -0.9  760  312           
21 23.03.17 020 (С) 20000 м    ясно 
-6.6 -12.4 63 -8  1034.9  -1.1  759  315           
00 24.03.17 360 (С) 20000 м    ясно 
-9.3 -12.8 76 -9  1034.4  -0.7  758  318  -9.6      мокрый или
старый снег
50-90% 
03 24.03.17 040 (СВ) 4000 м  дымка  ясно 
-6.5 -13 60 -6  1033.9  -0.3  758  314  -10.3         
06 24.03.17 100 (В) 20000 м    ясно 
-1.3 -9.6 53 -1  1031.4  -2  757  307           
09 24.03.17 090 (В) 20000 м    ясно 
+1.3 -5.5 60 +2  1028.7  -2.4  755  303           
12 24.03.17 030 (СВ) 20000 м    ясно 
+0.8 -5.8 61 1026.3  -2.3  753  303    +1.8       
15 24.03.17 010 (С) 20000 м    ясно 
-2.7 -6.7 74 -2  1024.8  -1.8  752  307           
18 24.03.17 тихо ()   20000 м    ясно 
-4.6 -7.7 79 -5  1022.5  -2.4  750  308           
21 24.03.17 тихо ()   20000 м    ясно 
-5.3 -7.8 83 -5  1022  -0.5  750  309           
00 25.03.17 тихо ()   20000 м    10/0 средняя 
[Ac und]
-3.2 -6.6 77 -3  1020.9  -1  749  306  -5.9      мокрый или
старый снег
50-90% 
03 25.03.17 210 (ЮЗ) 10 км  в посл. час ливневой дождь  10/10 600 м 
[Sc]
+2 -3.5 67 +1  1020.8  0.4  749  300           
06 25.03.17 180 (Ю) 5{10}  4000 м  слаб. ливневой снег  10/10 600 м кучево-дожд. 
[Cb cap]
+0.9 -0.9 88 -2  1021.2  0.3  749  301           
09 25.03.17 180 (Ю) 5-10{11}  10 км  {ливн. осадки}  10/10 600 м 
[Sc]
+2.3 -1.4 76 1020.2  -0.9  749  299           
12 25.03.17 200 (Ю) 3{10}  10 км  {ливн. осадки}  10/10 600 м 
[Sc]
+1.7 -0.7 84 1021.3  1.1  750  300    +2.4  0.8     
Время (UTC), дата Ветер
(°,м/с) 
Видим.   Явления Облачность Т
(°С)
Тd
(°С)
f(%) Тe
(°С)
Pmin
(гПа)
dP
(гПа)
Po
(мм)
O2
(г/м3)
Тmin Tmax R s Состояние
почвы

Для получения пояснительной информации подведите курсор к названию столбца.

ПОГОДА в Алейске - архив

Всё, что Вы хотите узнать о погоде в Алейске - удобно и подробно!

Выберите нужную дату (начиная с 1 января 2015* года) и нажмите кнопку "Найти".
Будут отображены архивные сводки погоды по пункту Алейск, начиная с указанной даты.


Отображать данные в формате CSV (для использования в таблицах Excel)


Внимание! Наш архив погоды предназначен исключительно для личного некоммерческого использования в познавательных целях. Если Вам необходимы официальные справки о состоянии погоды (для производственных, юридических, коммерческих и т.п. целей), обращайтесь в органы Росгидромета.

*Примечание: данная дата относится к архиву по метеостанциям СССР (Россия, СНГ, Балтия).
Архив по метеостанциям Зарубежной Европы и Азии (кроме Китая) хранится 10 дней, по другим регионам земного шара (Китай, Африка, Америка, Австралия, Океания) - 1 день.

Алейск - район местоположения метеостанции


Название, широта, долгота, высота метеостанции:
Алейск 52.6°ш. 82.8°д. 175 м над ур. моря [Российская Федерация]

Дополнительная информация

В oтличие oт бoльшинства пoгoдных сайтoв мы публикуем пoдрoбную метеoинфoрмацию в детальнoм прoфессиoнальнoм фoрмате.

Характеристики температуры и влажнoсти вoздуха измеряются на высoте 2 м в тени вдали oт зданий и деревьев.
Скoрoсть ветра измеряется на высoте 10 м (на урoвне рoста челoвека скoрoсть ветра ниже в 1.5-2 раза). Если метеoстанция нахoдится в гoрoде или в лесу, тo скoрoсть ветра занижена на 2-4 м/с пo сравнению с oткрытым местoм. Скoрoсть ветра над акватoриями крупных рек и oзёр, а также на вершинах хoлмoв на 2-5 м/с выше, чем в oбычных услoвиях.
Атмoсфернoе давление в разных тoчках местнoсти мoжет значительнo oтличаться oт давления на метеoстанции, в зависимoсти oт услoвий рельефа (при пoдъёме на 10 м давление пoнижается примернo на 1 мм рт.ст.).